[[{"header":{"parameterUnit":"m.s-1","parameterCategory":1,"la1":30.2991,"la2":30.254,"lo1":-89.0895,"lo2":-89.0444,"dy":0.0017,"dx":0.0017,"nx":28,"ny":28,"refTime":"2023-10-24T03:00:00:Z","depth":0,"parameterNumber":2,"parameterNumberName":"U-component_of_WINDS"},"data":[0,0,0,0,0,0,0,0,0,0,0,0,0,0,0,0,0,0,0,0,0,0,0,0,0,0,0,0,0,0,0,0,0,0,0,0,0,0,0,0,0,0,0,0,0,0,0,0,0,0,0,0,0,0,0,0,0,0,-6.6934,-6.6934,0,-6.6945,-6.6945,-6.6945,-6.6779,-6.6775,-6.677,-6.6766,-6.6776,-6.678,-6.6785,0,0,0,0,0,0,0,0,0,0,0,0,0,-6.6768,-6.6772,-6.6934,-6.6934,-6.6934,-6.6945,-6.6945,-6.6945,-6.678,-6.6774,-6.6769,-6.6764,-6.6774,-6.678,-6.6785,0,0,0,0,0,0,0,0,0,0,0,0,0,-6.6816,-6.6773,-6.6934,-6.6853,-6.6846,-6.6945,-6.6945,-6.6945,-6.6781,-6.6774,-6.6768,-6.6761,-6.6773,-6.6779,-6.6786,-6.6962,0,0,-6.6806,-6.6809,0,0,0,0,0,0,0,0,-6.6813,-6.6822,-6.6865,-6.6859,-6.6851,-6.6854,-6.689,-6.6951,-6.6783,-6.6806,-6.6766,-6.6758,-6.6807,-6.681,-6.6827,-6.6963,-6.6963,-6.6807,-6.6811,-6.6814,-6.6816,0,0,0,0,0,0,0,-6.681,-6.6821,-6.6938,-6.6865,-6.6857,-6.6816,-6.6815,-6.6901,-6.6844,-6.6803,-6.6791,-6.6795,-6.6802,-6.6821,-6.6826,-6.6963,-6.6807,-6.6812,-6.6817,-6.6819,-6.7243,-6.725,0,0,0,0,0,0,-6.6818,-6.6819,-6.6937,-6.6938,-6.6815,-6.6824,-6.6823,-6.686,-6.6843,-6.6834,-6.6801,-6.6787,-6.6813,-6.6819,-6.6826,-6.703,-6.6814,-6.682,-6.6824,-6.7236,-6.7245,-6.7252,0,0,0,0,0,0,-6.6815,-6.683,-6.6937,-6.6875,-6.6886,-6.6834,-6.6876,-6.6863,-6.6882,-6.6841,-6.683,-6.6831,-6.6808,-6.6817,-6.6929,-6.7028,-6.6823,-6.6829,-6.7227,-6.7239,-6.7249,-6.7441,0,0,0,0,0,0,-6.6811,-6.683,-6.6897,-6.6878,-6.689,-6.7041,-6.6882,-6.6868,-6.6895,-6.6877,-6.6866,-6.6858,-6.6803,-6.692,-6.6936,-6.7034,-6.6834,-6.7218,-6.7232,-6.7245,-6.7425,-6.7457,-6.7484,0,0,0,0,0,-6.6806,-6.695,-6.6901,-6.6916,-6.6972,-6.7047,-6.7053,-6.6988,-6.6903,-6.6969,-6.6943,-6.6858,-6.7016,-6.6933,-6.695,-6.7051,-6.7212,-6.7228,-6.7244,-6.7412,-6.7451,-6.7483,0,0,0,0,0,0,-6.698,-6.6946,-6.6891,-6.7034,-6.7045,-6.7019,-6.71,-6.7031,-6.7066,-6.7048,-6.6966,-6.6965,-6.7091,-6.7082,-6.6991,-6.722,-6.7098,-6.7119,-6.7221,-6.7257,-6.7286,-6.7284,-6.684,0,0,0,0,0,-6.7036,-6.71,-6.7066,-6.7196,-6.7204,-6.7152,-6.7182,-6.7132,-6.7139,-6.7142,-6.7124,-6.7134,-6.7186,-6.7221,-6.7267,-6.7425,-6.7419,-6.7502,-6.7532,-6.7556,-6.7573,-6.7655,-6.7692,-6.7306,-6.7306,-6.7306,0,0,-6.715,-6.7139,-6.7184,-6.723,-6.7233,-6.73,-6.7157,-6.7234,-6.7283,-6.7154,-6.7258,-6.7247,-6.7253,-6.7389,-6.7448,-6.7385,-6.768,-6.7577,-6.7596,-6.76,-6.7676,-6.7713,-6.7745,-6.7317,-6.7315,-6.7313,0,0,-6.7392,-6.7391,-6.7498,-6.7504,-6.751,-6.7475,-6.7502,-6.7487,-6.7473,-6.7578,-6.7482,-6.754,-6.7631,-6.7639,-6.7655,-6.7904,-6.7827,-6.7921,-6.8073,-6.8154,-6.8184,-6.8211,-6.8297,-6.833,-6.794,-6.794,-6.794,0,-6.7532,-6.7631,-6.7562,-6.7646,-6.7669,-6.7557,-6.7664,-6.7673,-6.7694,-6.7712,-6.7643,-6.7755,-6.7751,-6.7887,-6.7948,-6.7966,-6.7992,-6.792,-6.8186,-6.8211,-6.8235,-6.8317,-6.835,-6.7951,-6.795,-6.7949,-6.7948,0,-6.7803,-6.7873,-6.7959,-6.7982,-6.8015,-6.8111,-6.8056,-6.8098,-6.8046,-6.8018,-6.8126,-6.8118,-6.816,-6.8189,-6.8138,-6.8318,-6.8279,-6.82,-6.8075,-6.8284,-6.8359,-6.839,-6.7967,-6.7963,-6.796,-6.7957,0,0,-6.8151,-6.8137,-6.817,-6.8179,-6.8179,-6.8231,-6.8323,-6.8364,-6.8401,-6.842,-6.8493,-6.8575,-6.8501,-6.852,-6.847,-6.8541,-6.8737,-6.8452,-6.8451,-6.8503,-6.8933,-6.8991,-6.9028,-6.8688,-6.8693,-6.8698,-6.8932,0,-6.8384,-6.8539,-6.848,-6.8639,-6.8702,-6.8599,-6.8678,-6.8687,-6.8664,-6.8715,-6.8689,-6.8747,-6.8647,-6.8657,-6.8724,-6.8699,-6.8822,-6.8682,-6.8753,-6.8757,-6.8752,-6.9068,-6.9129,-6.935,-6.8961,-6.8966,-6.897,0,-6.8676,-6.8708,-6.8874,-6.8863,-6.8887,-6.896,-6.8993,-6.9044,-6.9052,-6.903,-6.9053,-6.8988,-6.9076,-6.8955,-6.9075,-6.8981,-6.9008,-6.9001,-6.9007,-6.9009,-6.8873,-6.9075,-6.9419,-6.9451,-6.9016,-6.9012,-6.9009,0,-6.8911,-6.8995,-6.9105,-6.9117,-6.9108,-6.9161,-6.916,-6.9161,-6.919,-6.922,-6.9238,-6.9279,-6.93,-6.9333,-6.928,-6.9197,-6.9407,-6.9282,-6.939,-6.9392,-6.9436,-6.9433,-6.9786,-6.9459,-6.9459,-6.9458,-6.9458,0,-6.9175,-6.928,-6.921,-6.9277,-6.9391,-6.9324,-6.9439,-6.9426,-6.9429,-6.9492,-6.9406,-6.9466,-6.9394,-6.9448,-6.9408,-6.9513,-6.9524,-6.9508,-6.9495,-6.9514,-6.9516,-6.9527,-6.951,-6.9467,-6.9465,-6.9463,-6.9462,0,-6.9454,-6.9412,-6.9524,-6.9508,-6.9507,-6.9591,-6.9577,-6.9638,-6.9611,-6.9691,-6.9706,-6.9664,-6.9723,-6.9675,-6.9732,-6.9705,-6.9843,-6.981,-6.984,-6.983,-6.9941,-6.993,-7.031,-7.0356,-7.0003,-7.0007,-7.001,0,-6.9624,-6.9702,-6.9695,-6.9731,-6.9736,-6.9795,-6.9825,-6.9763,-6.9797,-6.9814,-6.9873,-6.9925,-6.9963,-7.0062,-7.0036,-7.008,-7.0045,-7.0176,-7.0051,-7.0067,-7.0044,-7.0039,-7.0046,-7.02,-7.0204,-7.0207,-7.021,0,-6.9929,-6.9905,-6.9951,-6.9992,-7.003,-7.0059,-7.008,-7.0115,-7.0051,-7.0095,-7.0154,-7.0184,-7.0244,-7.0296,-7.0331,-7.0329,-7.026,-7.0251,-7.0277,-7.0295,-7.0308,-7.03,-6.9906,-7.0241,-7.0238,-7.0236,-7.0234,-7.0233,-7.0157,-7.0221,-7.0227,-7.0281,-7.0292,-7.0314,-7.0371,-7.0352,-7.0401,-7.0445,-7.0406,-7.0478,-7.0485,-7.0525,-7.0532,-7.0587,-7.0533,-7.0573,-7.0582,-7.0592,-7.0607,-7.0303,-7.0594,-7.0593,-7.0592,-7.0591,-7.0591,0,-7.0455,-7.0454,-7.0506,-7.0539,-7.0583,-7.0516,-7.0537,-7.0577,-7.0642,-7.0655,-7.0695,-7.0764,-7.0815,-7.0794,-7.0839,-7.0887,-7.0856,-7.0901,-7.0894,-7.0895,-7.0654,-7.0625,-7.0925,-7.0925,-7.0925,-7.0925,-7.0925,-7.0924,-7.0615,-7.072,-7.0698,-7.0808,-7.0806,-7.0876,-7.0894,-7.0914,-7.0924,-7.1005,-7.1048,-7.1034,-7.1034,-7.1078,-7.1122,-7.1115,-7.1134,-7.119,-7.1171,-7.0945,-7.0912,-7.088,-7.0853,-7.1195,-7.1196,-7.1407,-7.1409,-7.141]},{"header":{"parameterUnit":"m.s-1","parameterCategory":1,"la1":30.2991,"la2":30.254,"lo1":-89.0895,"lo2":-89.0444,"dy":0.0017,"dx":0.0017,"nx":28,"ny":28,"refTime":"2023-10-24T03:00:00:Z","depth":0,"parameterNumber":3,"parameterNumberName":"V-component_of_WINDS"},"data":[0,0,0,0,0,0,0,0,0,0,0,0,0,0,0,0,0,0,0,0,0,0,0,0,0,0,0,0,0,0,0,0,0,0,0,0,0,0,0,0,0,0,0,0,0,0,0,0,0,0,0,0,0,0,0,0,0,0,1.5142,1.5141,0,1.5078,1.5077,1.5077,1.5013,1.5012,1.5011,1.501,1.4942,1.494,1.4939,0,0,0,0,0,0,0,0,0,0,0,0,0,1.5207,1.5206,1.5142,1.5141,1.514,1.5078,1.5077,1.5076,1.5013,1.5012,1.5011,1.501,1.4942,1.4941,1.4939,0,0,0,0,0,0,0,0,0,0,0,0,0,1.5164,1.5206,1.5142,1.5101,1.5097,1.5078,1.5077,1.5076,1.5013,1.5012,1.5011,1.501,1.4942,1.4941,1.4939,1.4954,0,0,1.4934,1.4934,0,0,0,0,0,0,0,0,1.5167,1.5162,1.5108,1.5104,1.5099,1.5052,1.5075,1.5035,1.5014,1.5045,1.501,1.5009,1.4979,1.4974,1.4965,1.4951,1.4948,1.4934,1.4933,1.4933,1.4932,0,0,0,0,0,0,0,1.517,1.5164,1.5116,1.5107,1.5102,1.5086,1.5078,1.5067,1.502,1.5042,1.5037,1.5031,1.4976,1.4967,1.4963,1.4947,1.4934,1.4933,1.4932,1.4931,1.4944,1.4946,0,0,0,0,0,0,1.5179,1.5167,1.5118,1.5114,1.5131,1.5085,1.5077,1.5069,1.502,1.5011,1.5032,1.5028,1.497,1.4965,1.496,1.4976,1.4933,1.4931,1.493,1.4943,1.4945,1.4946,0,0,0,0,0,0,1.5181,1.5176,1.5121,1.514,1.5131,1.5086,1.5076,1.5068,1.5058,1.5012,1.5003,1.5031,1.4969,1.4963,1.4957,1.4973,1.493,1.4929,1.4942,1.4944,1.4945,1.5007,0,0,0,0,0,0,1.5183,1.5177,1.5182,1.514,1.5131,1.512,1.5077,1.5068,1.5056,1.505,1.5009,1.5001,1.4967,1.496,1.4956,1.497,1.4928,1.494,1.4943,1.4945,1.5004,1.5011,1.5018,0,0,0,0,0,1.5186,1.5201,1.5183,1.5177,1.5137,1.5121,1.5115,1.5078,1.5058,1.5063,1.5034,1.5002,1.4972,1.496,1.4954,1.4968,1.4939,1.4942,1.4945,1.5001,1.501,1.5017,0,0,0,0,0,0,1.5244,1.5195,1.5174,1.5176,1.5154,1.511,1.5115,1.5088,1.5069,1.5065,1.5018,1.5009,1.5009,1.4988,1.4975,1.4982,1.4951,1.4953,1.4995,1.5004,1.5011,1.5016,1.4926,0,0,0,0,0,1.5258,1.5249,1.5206,1.5212,1.5202,1.5161,1.5152,1.5126,1.51,1.5089,1.5059,1.5034,1.5019,1.501,1.4994,1.5001,1.4991,1.5008,1.5015,1.5021,1.5023,1.5026,1.5034,1.4956,1.4956,1.4956,0,0,1.5284,1.5257,1.5254,1.5223,1.5202,1.5195,1.5153,1.5146,1.514,1.5088,1.5081,1.5059,1.5028,1.5029,1.5028,1.5011,1.5043,1.5024,1.503,1.5028,1.503,1.5038,1.5044,1.4958,1.4957,1.4957,0,0,1.533,1.5308,1.5311,1.5292,1.5262,1.5235,1.5236,1.5197,1.5181,1.5174,1.5136,1.5127,1.5102,1.5082,1.5068,1.511,1.508,1.5105,1.5141,1.5145,1.5152,1.5157,1.5172,1.5178,1.5108,1.5108,1.5108,0,1.5367,1.5355,1.5316,1.5313,1.5301,1.5255,1.5259,1.5241,1.5207,1.5199,1.5182,1.5151,1.5127,1.5124,1.5134,1.5124,1.5124,1.5109,1.5154,1.5159,1.5163,1.5177,1.5183,1.5111,1.5111,1.511,1.511,0,1.5402,1.5394,1.5401,1.5371,1.5359,1.5359,1.5321,1.5314,1.5289,1.5264,1.5258,1.5228,1.5206,1.5203,1.5178,1.5197,1.5188,1.5163,1.5131,1.5175,1.5187,1.5192,1.5116,1.5115,1.5114,1.5113,0,0,1.5481,1.5432,1.5435,1.5422,1.5386,1.5379,1.5377,1.5357,1.5352,1.533,1.5328,1.5309,1.5286,1.5271,1.5244,1.5247,1.5283,1.5222,1.522,1.5235,1.5303,1.5323,1.533,1.5264,1.5264,1.5265,1.5306,0,1.5521,1.5516,1.5482,1.5487,1.548,1.5438,1.5436,1.5414,1.5391,1.5381,1.5355,1.5343,1.5314,1.5305,1.5306,1.5278,1.5296,1.5275,1.526,1.526,1.527,1.5336,1.5356,1.5396,1.5311,1.5312,1.5312,0,1.5566,1.5549,1.5554,1.552,1.5516,1.5515,1.5495,1.5486,1.5461,1.5444,1.5429,1.5398,1.5394,1.5365,1.5358,1.5345,1.5337,1.5323,1.5323,1.532,1.5289,1.5335,1.5407,1.5414,1.5319,1.5319,1.5318,0,1.5624,1.5603,1.5603,1.5593,1.5553,1.5554,1.5537,1.5511,1.5502,1.5484,1.5477,1.5459,1.5448,1.5435,1.54,1.5382,1.5398,1.5366,1.5384,1.5385,1.5389,1.5389,1.5461,1.5384,1.5384,1.5384,1.5383,0,1.5672,1.5676,1.5629,1.5629,1.5633,1.5595,1.56,1.5579,1.5556,1.5552,1.5514,1.551,1.5465,1.5456,1.5429,1.5429,1.5424,1.541,1.5403,1.5414,1.5416,1.5408,1.5404,1.5385,1.5385,1.5384,1.5384,0,1.5737,1.5706,1.5703,1.5667,1.5658,1.5663,1.5632,1.563,1.5606,1.5601,1.5597,1.5559,1.5547,1.5511,1.5489,1.5471,1.5479,1.5465,1.5488,1.5484,1.5504,1.5503,1.5574,1.5582,1.5499,1.55,1.5501,0,1.577,1.5773,1.5738,1.5733,1.5719,1.5711,1.5702,1.5664,1.5656,1.5629,1.5631,1.5617,1.5603,1.5586,1.5555,1.5539,1.5524,1.5551,1.5521,1.5533,1.5526,1.5526,1.5527,1.5557,1.5558,1.5559,1.5559,0,1.5832,1.5817,1.5806,1.579,1.5781,1.5766,1.5749,1.5747,1.5706,1.5699,1.5687,1.5677,1.5656,1.5642,1.5621,1.5603,1.5575,1.5569,1.5573,1.5584,1.5597,1.5591,1.5506,1.5567,1.5567,1.5566,1.5566,1.5565,1.5882,1.5883,1.586,1.5849,1.5833,1.5819,1.5817,1.5793,1.5783,1.5764,1.5743,1.5734,1.571,1.5679,1.5664,1.5656,1.5641,1.5645,1.5646,1.5648,1.5654,1.5599,1.5652,1.5652,1.5651,1.5651,1.5651,0,1.5942,1.5926,1.5917,1.5896,1.5888,1.5863,1.5844,1.5839,1.5832,1.5812,1.5801,1.5788,1.5775,1.5744,1.5728,1.5728,1.5715,1.5725,1.5725,1.5722,1.5668,1.5667,1.5737,1.5737,1.5737,1.5737,1.5736,1.5736,1.5973,1.5975,1.5957,1.5951,1.5933,1.5926,1.5917,1.5904,1.5888,1.5876,1.5866,1.5847,1.5823,1.5806,1.5793,1.5784,1.578,1.5795,1.5782,1.5733,1.5725,1.5717,1.5716,1.5795,1.5795,1.5836,1.5837,1.5837]}]]